Flag for Norfolk Island Weather past 2 weeks in Kingston, Norfolk Island

Now
68 °F

Passing clouds.


Feels Like: 68 °F
Forecast: 67 / 74 °F
Wind: 10 mph from Southeast

Location: Norfolk Island Airport

Current Time: Mar 31, 2015 at 9:18:53 PM

Latest Report: Mar 31, 2015 at 8:30 PM


Visibility: N/A

Pressure: 30.24 "Hg

Humidity: 69%

Dew point: 57 °F

Location of KingstonLocation

Historic Weather in Kingston — Graph

°F

Kingston temperature yesterday

Maximum temperature yesterday: 75 °F (at 11:30 AM)
Minimum temperature yesterday: 66 °F (at 4:00 AM)
Average temperature yesterday: 70 °F

Past Weeks' High & Low Weather Summary

 TemperatureHumidityPressure
High77 °F (Mar 24, 12:30 PM)94% (Mar 22, 8:30 AM)30.24 "Hg (Mar 22, 8:30 AM)
Low63 °F (Mar 24, 5:30 AM)44% (Mar 17, 12:00 PM)29.62 "Hg (Mar 16, 7:30 PM)
Average70 °F66%30.06 "Hg
* Reported Mar 16 7:30 PM — Mar 31 7:30 PM, Kingston, Weather by CustomWeather, © 2015

Note: Actual official high and low records may vary slightly from our data, if they occured in-between our weather recording intervals... More about our weather records

Advertising

Kingston weather history for previous 24 hours

 ConditionsComfort  
Time TempWeatherWind HumidityBarometerVisibility
7:30 PM
Tue, Mar 31
70 °FPassing clouds.10 mph64%30.21 "HgN/A
7:00 PM70 °FPassing clouds.13 mph64%30.21 "HgN/A
6:30 PM70 °FPassing clouds.12 mph64%30.18 "HgN/A
6:00 PM70 °FPassing clouds.10 mph64%30.18 "HgN/A
5:30 PM70 °FPassing clouds.13 mph64%30.18 "HgN/A
5:00 PM72 °FPassing clouds.12 mph57%30.18 "HgN/A
4:30 PM72 °FPassing clouds.13 mph57%30.18 "HgN/A
4:00 PM73 °FPassing clouds.14 mph53%30.18 "HgN/A
3:30 PM73 °FScattered clouds.13 mph53%30.18 "HgN/A
3:00 PM73 °FPassing clouds.13 mph50%30.18 "HgN/A
2:30 PM75 °FPassing clouds.13 mph50%30.18 "HgN/A
2:00 PM73 °FPassing clouds.14 mph53%30.21 "HgN/A
1:30 PM73 °FPassing clouds.14 mph53%30.21 "HgN/A
1:00 PM73 °FPassing clouds.15 mph53%30.21 "HgN/A
12:30 PM73 °FPassing clouds.13 mph53%30.21 "HgN/A
12:00 PM72 °FPassing clouds.13 mph57%30.24 "HgN/A
11:30 AM73 °FPassing clouds.14 mph53%30.24 "HgN/A
10:30 AM73 °FPassing clouds.10 mph47%30.24 "HgN/A
10:00 AM72 °FPassing clouds.12 mph50%30.24 "HgN/A
9:30 AM73 °FPassing clouds.12 mph47%30.24 "HgN/A
9:00 AM72 °FPassing clouds.12 mph50%30.24 "HgN/A
8:30 AM72 °FPassing clouds.10 mph53%30.24 "HgN/A
8:00 AM70 °FPassing clouds.10 mph57%30.24 "HgN/A
7:30 AM70 °FPassing clouds.10 mph60%30.21 "HgN/A
6:30 AM68 °FPartly sunny.10 mph69%30.21 "HgN/A
6:00 AM68 °FScattered clouds.10 mph64%30.18 "HgN/A
5:30 AM68 °FPassing clouds.10 mph64%30.18 "HgN/A
4:30 AM68 °FPassing clouds.10 mph64%30.18 "HgN/A
4:00 AM68 °FPartly cloudy.12 mph64%30.18 "HgN/A
3:30 AM68 °FPartly cloudy.10 mph64%30.18 "HgN/A
3:00 AM68 °FPassing clouds.12 mph64%30.18 "HgN/A
2:30 AM68 °FPassing clouds.10 mph64%30.18 "HgN/A
2:00 AM68 °FPassing clouds.13 mph64%30.18 "HgN/A
1:30 AM68 °FPassing clouds.10 mph69%30.18 "HgN/A
1:00 AM68 °FPartly cloudy.9 mph69%30.21 "HgN/A
12:30 AM68 °FMostly cloudy.8 mph73%30.21 "HgN/A
11:30 PM
Mon, Mar 30
68 °FPassing clouds.9 mph73%30.21 "HgN/A
11:00 PM68 °FPassing clouds.8 mph69%30.21 "HgN/A
10:30 PM68 °FPassing clouds.12 mph69%30.21 "HgN/A
9:30 PM68 °FPassing clouds.10 mph56%30.21 "HgN/A
9:00 PM68 °FPassing clouds.10 mph60%30.21 "HgN/A
Weather by CustomWeather, © 2015

See weather overviewHow to use our weather pages